Regional Weather Roundup
Issued by NWS State College, PA

Home | Current Version | Previous Version | Text Only | Print | Product List | Glossary Off
Versions: 1 2 3 4 5 6 7 8 9 10 11 12 13 14 15 16 17 18 19 20 21 22 23 24 25 26 27 28 29 30 31 32 33 34 35 36 37 38 39 40 41 42 43 44 45 46 47 48 49 50

000
ASUS41 KCTP 250703
RWRCTP

REGIONAL WEATHER ROUNDUP
NATIONAL WEATHER SERVICE STATE COLLEGE PA
300 AM EDT FRI JUL 25 2014

Note: "fair" indicates few or no clouds below 12,000 feet with no
significant weather and/or obstructions to visibility.

* = STATION THAT DOES NOT REPORT PRECIPITATION /E.G. RAIN...SNOW...ETC/
    THUNDER OR FOG.

PAZ002>004-007>009-013>016-020>023-029>032-250800-
WESTERN PENNSYLVANIA

CITY           SKY/WX    TMP DP  RH WIND       PRES   REMARKS
ERIE           CLEAR     55  49  80 S6        30.05F
MEADVILLE      CLEAR     51  47  86 CALM      30.07S
FRANKLIN*      CLEAR     48  45  87 CALM      30.08F
NEW CASTLE       N/A     48  48 100 CALM      30.09R
BEAVER COUNTY  NOT AVBL
BUTLER*        CLEAR     50  46  87 CALM      30.09S
PITTSBURGH INT CLEAR     56  50  80 CALM      30.07S
PITTSBURGH     CLEAR     58  48  69 NW3       30.06S
INDIANA*       PTCLDY    54  52  94 CALM      30.10S
LATROBE        CLEAR     55  55 100 CALM      30.07S
WASHINGTON CO* CLEAR     52  48  87 CALM      30.07F
$$

PAZ004>006-010>012-017>019-024>028-033>037-041-042-045-046-049>053-250800-
CENTRAL PENNSYLVANIA

CITY           SKY/WX    TMP DP  RH WIND       PRES   REMARKS
BRADFORD       CLEAR     43  41  93 CALM      30.07F
DUBOIS         CLEAR     52  49  89 E3        30.06F
CLEARFIELD     CLEAR     50  49  96 N7        30.06F
JOHNSTOWN      CLEAR     53  49  86 NE3       30.07S
ALTOONA        CLEAR     55  52  89 CALM      30.06F
STATE COLLEGE  CLEAR     55  49  79 CALM      30.05S
WILLIAMSPORT   CLEAR     52  48  86 CALM      30.03F
SELINSGROVE    CLEAR     52  50  93 NW3       30.03F
FT INDIANTOWN  CLEAR     54  53  99 N2        30.01S
CAPITAL CITY   CLEAR     64  48  56 N5        30.01F
HARRISBURG     CLEAR     62  52  69 N3        30.00F
YORK           CLEAR     55  53  93 CALM      30.01S
$$

PAZ038>040-043-044-047-048-054-055-060>062-067>071-250800-
EASTERN PENNSYLVANIA

CITY           SKY/WX    TMP DP  RH WIND       PRES   REMARKS
SCRANTON       CLEAR     52  48  86 CALM      30.03R
MOUNT POCONO   CLEAR     53  32  44 N7        30.02R
ALLENTOWN      CLEAR     60  51  72 W3        29.99R
QUAKERTOWN*    SUNNY     57  54  88 CALM      29.99S
READING        CLEAR     61  50  67 NW7       30.00R
LANCASTER      CLEAR     59  50  72 N8        30.00S
COATESVILLE    SUNNY     61  50  67 N6        30.00S
POTTSTOWN      CLEAR     61  51  70 W3        30.00R
BLUE BELL      CLEAR     61  55  82 CALM      29.97R
DOYLESTOWN     CLEAR     61  52  72 N6        29.97R
WILLOW GROVE   NOT AVBL
NORTH PHILA    PTCLDY    66  51  58 NW8       29.97S
PHILADELPHIA   MOCLDY    67  52  58 N7        29.97R
$$



USA.gov is the U.S. government's official web portal to all federal, state and local government web resources and services.